OMD167 KLAX-KGYR

Flight info

Callsign OMD167
Flight time 0h 55m
Altitude 37000
Route DOTSS2 CNERY DCT BLH DCT BXK DCT
Aircraft A320/M-SDE3FGHIRWY/LB1

Departure

Time 2026-05-06 20:20
Airport Los Angeles International Airport (KLAX)

Arrival

Time 2026-05-06 21:15
Airport Phoenix Goodyear Airport (KGYR)
Time Latitude Longitude Altitude Speed Heading
2026-05-06 19:51 33.94321 -118.42981 95 ft 0 kts 82°
2026-05-06 20:03 33.94317 -118.43009 113 ft 4 kts 76°
2026-05-06 20:03 33.94309 -118.43040 94 ft 4 kts 66°
2026-05-06 20:03 33.94296 -118.43068 97 ft 4 kts 43°
2026-05-06 20:03 33.94278 -118.43080 95 ft 1 kts 353°
2026-05-06 20:04 33.94277 -118.43080 95 ft 0 kts 353°
2026-05-06 20:08 33.94278 -118.43080 95 ft 1 kts 353°
2026-05-06 20:08 33.94316 -118.43086 96 ft 10 kts 353°
2026-05-06 20:08 33.94399 -118.43098 97 ft 14 kts 353°
2026-05-06 20:09 33.94515 -118.43115 97 ft 19 kts 353°
2026-05-06 20:09 33.94595 -118.43098 101 ft 11 kts 56°
2026-05-06 20:09 33.94608 -118.42987 99 ft 16 kts 83°
2026-05-06 20:09 33.94633 -118.42839 101 ft 20 kts 73°
2026-05-06 20:10 33.94638 -118.42670 100 ft 22 kts 84°
2026-05-06 20:10 33.94659 -118.42469 99 ft 26 kts 82°
2026-05-06 20:10 33.94679 -118.42254 99 ft 27 kts 81°
2026-05-06 20:10 33.94703 -118.42046 99 ft 26 kts 82°
2026-05-06 20:11 33.94688 -118.41932 97 ft 10 kts 172°
2026-05-06 20:11 33.94582 -118.41919 95 ft 19 kts 175°
2026-05-06 20:11 33.94434 -118.41904 95 ft 24 kts 172°
2026-05-06 20:11 33.94252 -118.41869 95 ft 29 kts 178°
2026-05-06 20:12 33.94111 -118.41855 97 ft 13 kts 170°
2026-05-06 20:12 33.94005 -118.41834 97 ft 18 kts 171°
2026-05-06 20:12 33.93864 -118.41815 96 ft 23 kts 175°
2026-05-06 20:12 33.93739 -118.41794 101 ft 12 kts 166°
2026-05-06 20:13 33.93703 -118.41715 105 ft 13 kts 87°
2026-05-06 20:13 33.93718 -118.41569 104 ft 21 kts 85°
2026-05-06 20:13 33.93736 -118.41378 104 ft 24 kts 85°
2026-05-06 20:13 33.93757 -118.41177 103 ft 21 kts 80°
2026-05-06 20:14 33.93779 -118.40978 102 ft 27 kts 85°
2026-05-06 20:14 33.93797 -118.40764 103 ft 25 kts 86°
2026-05-06 20:14 33.93816 -118.40584 103 ft 23 kts 83°
2026-05-06 20:14 33.93838 -118.40376 104 ft 24 kts 83°
2026-05-06 20:15 33.93857 -118.40185 105 ft 23 kts 83°
2026-05-06 20:15 33.93877 -118.39998 105 ft 24 kts 84°
2026-05-06 20:15 33.93898 -118.39799 103 ft 24 kts 85°
2026-05-06 20:15 33.93919 -118.39580 103 ft 26 kts 83°
2026-05-06 20:16 33.93940 -118.39383 100 ft 26 kts 79°
2026-05-06 20:16 33.93958 -118.39202 101 ft 13 kts 83°
2026-05-06 20:16 33.93971 -118.39074 102 ft 18 kts 83°
2026-05-06 20:16 33.93984 -118.38909 102 ft 22 kts 79°
2026-05-06 20:17 33.94010 -118.38704 103 ft 27 kts 82°
2026-05-06 20:17 33.94031 -118.38511 103 ft 20 kts 85°
2026-05-06 20:17 33.94047 -118.38347 104 ft 19 kts 82°
2026-05-06 20:17 33.94063 -118.38188 104 ft 16 kts 82°
2026-05-06 20:18 33.94074 -118.38086 103 ft 0 kts 82°
2026-05-06 20:18 33.94074 -118.38083 103 ft 3 kts 82°
2026-05-06 20:18 33.94076 -118.38034 103 ft 8 kts 99°
2026-05-06 20:18 33.94036 -118.37998 107 ft 7 kts 171°
2026-05-06 20:19 33.93992 -118.38016 110 ft 8 kts 229°
2026-05-06 20:19 33.93968 -118.38161 108 ft 53 kts 262°
2026-05-06 20:19 33.93871 -118.39072 108 ft 157 kts 262°
2026-05-06 20:19 33.93731 -118.40572 621 ft 198 kts 264°
2026-05-06 20:20 33.93590 -118.42323 1124 ft 203 kts 264°
2026-05-06 20:20 33.93470 -118.43772 1513 ft 162 kts 261°
2026-05-06 20:20 33.93341 -118.44964 1952 ft 146 kts 261°
2026-05-06 20:20 33.93014 -118.46414 2305 ft 208 kts 249°
2026-05-06 20:21 33.92344 -118.48179 2820 ft 245 kts 240°
2026-05-06 20:21 33.91327 -118.49828 3379 ft 240 kts 229°
2026-05-06 20:21 33.90259 -118.51151 3888 ft 202 kts 226°
2026-05-06 20:21 33.89198 -118.52393 4453 ft 237 kts 226°
2026-05-06 20:22 33.87918 -118.53834 5008 ft 282 kts 219°
2026-05-06 20:22 33.86224 -118.54972 5539 ft 268 kts 201°
2026-05-06 20:22 33.84305 -118.55545 6098 ft 308 kts 186°
2026-05-06 20:22 33.82048 -118.55400 6779 ft 341 kts 168°
2026-05-06 20:23 33.79769 -118.54821 7463 ft 316 kts 166°
2026-05-06 20:23 33.77768 -118.54293 8185 ft 276 kts 165°
2026-05-06 20:23 33.75826 -118.53764 8956 ft 304 kts 165°
2026-05-06 20:23 33.73718 -118.53055 9729 ft 337 kts 156°
2026-05-06 20:24 33.71569 -118.51681 10485 ft 363 kts 142°
2026-05-06 20:24 33.69684 -118.49621 11203 ft 385 kts 127°
2026-05-06 20:24 33.68213 -118.46848 11951 ft 404 kts 111°
2026-05-06 20:24 33.67265 -118.43809 12682 ft 365 kts 106°
2026-05-06 20:25 33.66776 -118.42173 13127 ft 336 kts 106°
2026-05-06 20:25 33.66514 -118.41303 13377 ft 322 kts 106°
2026-05-06 20:25 33.65771 -118.38829 14141 ft 324 kts 105°
2026-05-06 20:25 33.65004 -118.36162 14863 ft 351 kts 103°
2026-05-06 20:26 33.64526 -118.33417 15553 ft 323 kts 92°
2026-05-06 20:26 33.64453 -118.30795 16289 ft 316 kts 85°
2026-05-06 20:26 33.64469 -118.28118 17053 ft 326 kts 86°
2026-05-06 20:26 33.64481 -118.25357 17839 ft 335 kts 86°
2026-05-06 20:27 33.64484 -118.22535 18607 ft 343 kts 86°
2026-05-06 20:27 33.64483 -118.19684 19293 ft 349 kts 86°
2026-05-06 20:27 33.64482 -118.16753 20011 ft 353 kts 86°
2026-05-06 20:27 33.64484 -118.13752 20735 ft 357 kts 86°
2026-05-06 20:28 33.64484 -118.10795 21478 ft 361 kts 86°
2026-05-06 20:28 33.64480 -118.07766 22252 ft 364 kts 86°
2026-05-06 20:28 33.64477 -118.05706 22789 ft 366 kts 86°
2026-05-06 20:28 33.64472 -118.01638 23852 ft 369 kts 86°
2026-05-06 20:29 33.64468 -117.98544 24541 ft 371 kts 86°
2026-05-06 20:29 33.64464 -117.96483 25014 ft 372 kts 86°
2026-05-06 20:29 33.64454 -117.92320 25975 ft 374 kts 86°
2026-05-06 20:29 33.64448 -117.90214 26473 ft 374 kts 86°
2026-05-06 20:30 33.64437 -117.87105 26950 ft 383 kts 86°
2026-05-06 20:30 33.64357 -117.80464 27130 ft 412 kts 91°
2026-05-06 20:30 33.63811 -117.77010 27126 ft 421 kts 101°
2026-05-06 20:31 33.62981 -117.73679 27126 ft 422 kts 102°
2026-05-06 20:31 33.62131 -117.70261 27122 ft 422 kts 102°
2026-05-06 20:31 33.61295 -117.66883 27127 ft 422 kts 102°
2026-05-06 20:31 33.60462 -117.63495 27121 ft 422 kts 102°
2026-05-06 20:32 33.59364 -117.59023 27124 ft 422 kts 101°
2026-05-06 20:32 33.58811 -117.56774 27118 ft 422 kts 101°
2026-05-06 20:32 33.57976 -117.53399 27116 ft 422 kts 102°
2026-05-06 20:32 33.57140 -117.50024 27114 ft 423 kts 102°
2026-05-06 20:33 33.56300 -117.46645 27117 ft 423 kts 102°
2026-05-06 20:33 33.55459 -117.43268 27117 ft 423 kts 102°
2026-05-06 20:33 33.54618 -117.39891 27117 ft 423 kts 102°
2026-05-06 20:33 33.53776 -117.36520 27115 ft 422 kts 102°
2026-05-06 20:34 33.52933 -117.33151 27115 ft 422 kts 102°
2026-05-06 20:34 33.52091 -117.29779 27112 ft 422 kts 102°
2026-05-06 20:34 33.51251 -117.26413 27110 ft 422 kts 102°
2026-05-06 20:34 33.50601 -117.23010 27107 ft 416 kts 93°
2026-05-06 20:35 33.50430 -117.19572 27104 ft 412 kts 86°
2026-05-06 20:35 33.50394 -117.16140 27103 ft 412 kts 86°
2026-05-06 20:35 33.50353 -117.12705 27104 ft 412 kts 86°
2026-05-06 20:35 33.50310 -117.09269 27103 ft 412 kts 86°
2026-05-06 20:36 33.50265 -117.05839 27102 ft 412 kts 87°
2026-05-06 20:36 33.50215 -117.02404 27103 ft 412 kts 87°
2026-05-06 20:36 33.50161 -116.98968 27104 ft 412 kts 87°
2026-05-06 20:36 33.50108 -116.95538 27100 ft 412 kts 87°
2026-05-06 20:37 33.50057 -116.92110 27100 ft 412 kts 87°
2026-05-06 20:37 33.50007 -116.88675 27096 ft 412 kts 87°
2026-05-06 20:37 33.49957 -116.85252 27094 ft 412 kts 87°
2026-05-06 20:37 33.49903 -116.81822 27089 ft 412 kts 87°
2026-05-06 20:38 33.49846 -116.78393 27086 ft 412 kts 87°
2026-05-06 20:38 33.49789 -116.74964 27081 ft 412 kts 87°
2026-05-06 20:38 33.49735 -116.71538 27080 ft 412 kts 87°
2026-05-06 20:38 33.49678 -116.68111 27071 ft 411 kts 87°
2026-05-06 20:39 33.49619 -116.64682 27073 ft 411 kts 87°
2026-05-06 20:39 33.49559 -116.61256 27066 ft 411 kts 87°
2026-05-06 20:39 33.49498 -116.57830 27064 ft 411 kts 87°
2026-05-06 20:39 33.49438 -116.54405 27064 ft 411 kts 87°
2026-05-06 20:40 33.49374 -116.50984 27056 ft 411 kts 87°
2026-05-06 20:40 33.49307 -116.47568 27052 ft 410 kts 87°
2026-05-06 20:40 33.49239 -116.44146 27046 ft 411 kts 87°
2026-05-06 20:40 33.49176 -116.40726 27040 ft 411 kts 87°
2026-05-06 20:41 33.49125 -116.37310 27032 ft 410 kts 87°
2026-05-06 20:41 33.49084 -116.33897 27032 ft 410 kts 86°
2026-05-06 20:41 33.49043 -116.30478 27031 ft 410 kts 87°
2026-05-06 20:41 33.48995 -116.27061 27040 ft 410 kts 87°
2026-05-06 20:42 33.48943 -116.23646 27031 ft 410 kts 87°
2026-05-06 20:42 33.48890 -116.20237 27028 ft 409 kts 87°
2026-05-06 20:42 33.48834 -116.16825 27039 ft 409 kts 87°
2026-05-06 20:42 33.48779 -116.13418 27034 ft 409 kts 87°
2026-05-06 20:43 33.48722 -116.10009 27037 ft 409 kts 87°
2026-05-06 20:43 33.48666 -116.06607 27035 ft 408 kts 86°
2026-05-06 20:43 33.48881 -116.03237 27032 ft 403 kts 77°
2026-05-06 20:43 33.49594 -116.00011 27030 ft 400 kts 68°
2026-05-06 20:44 33.50518 -115.96865 27024 ft 400 kts 68°
2026-05-06 20:44 33.51442 -115.93727 27024 ft 400 kts 68°
2026-05-06 20:44 33.52368 -115.90583 27022 ft 400 kts 68°
2026-05-06 20:44 33.53291 -115.87438 27019 ft 400 kts 68°
2026-05-06 20:45 33.54210 -115.84295 27020 ft 400 kts 68°
2026-05-06 20:45 33.55127 -115.81154 27013 ft 399 kts 68°
2026-05-06 20:45 33.56042 -115.78016 27016 ft 399 kts 68°
2026-05-06 20:45 33.56956 -115.74872 27012 ft 399 kts 68°
2026-05-06 20:46 33.57869 -115.71729 27009 ft 399 kts 68°
2026-05-06 20:46 33.58782 -115.68581 27016 ft 400 kts 69°
2026-05-06 20:46 33.59695 -115.65425 27014 ft 400 kts 69°
2026-05-06 20:46 33.60596 -115.62316 27012 ft 400 kts 69°
2026-05-06 20:47 33.61453 -115.59140 27008 ft 401 kts 74°
2026-05-06 20:47 33.61724 -115.55797 27008 ft 407 kts 88°
2026-05-06 20:47 33.61620 -115.52402 27011 ft 408 kts 88°
2026-05-06 20:47 33.61528 -115.49002 27013 ft 408 kts 88°
2026-05-06 20:48 33.61446 -115.45600 27014 ft 408 kts 88°
2026-05-06 20:48 33.61371 -115.42202 27015 ft 408 kts 88°
2026-05-06 20:48 33.61297 -115.38803 27014 ft 408 kts 88°
2026-05-06 20:48 33.61221 -115.35404 27017 ft 408 kts 88°
2026-05-06 20:49 33.61142 -115.31999 27018 ft 408 kts 88°
2026-05-06 20:49 33.61057 -115.28598 27016 ft 408 kts 88°
2026-05-06 20:49 33.60969 -115.25196 27019 ft 408 kts 88°
2026-05-06 20:49 33.60879 -115.21796 27017 ft 408 kts 88°
2026-05-06 20:50 33.60789 -115.18400 27018 ft 408 kts 88°
2026-05-06 20:50 33.60698 -115.14998 27018 ft 408 kts 88°
2026-05-06 20:50 33.60608 -115.11600 27023 ft 408 kts 88°
2026-05-06 20:50 33.60519 -115.08202 27024 ft 408 kts 88°
2026-05-06 20:51 33.60427 -115.04802 27027 ft 408 kts 88°
2026-05-06 20:51 33.60333 -115.01402 26892 ft 408 kts 88°
2026-05-06 20:51 33.60238 -114.97997 26392 ft 409 kts 88°
2026-05-06 20:51 33.60141 -114.94586 25904 ft 410 kts 89°
2026-05-06 20:52 33.60045 -114.91163 25422 ft 411 kts 89°
2026-05-06 20:52 33.59948 -114.87724 25099 ft 413 kts 89°
2026-05-06 20:52 33.59850 -114.84280 25023 ft 413 kts 89°
2026-05-06 20:52 33.59768 -114.80832 25047 ft 414 kts 89°
2026-05-06 20:53 33.59658 -114.77379 25047 ft 415 kts 89°
2026-05-06 20:53 33.59500 -114.73929 25049 ft 415 kts 90°
2026-05-06 20:53 33.59296 -114.70476 25046 ft 415 kts 91°
2026-05-06 20:53 33.59060 -114.67017 25046 ft 415 kts 91°
2026-05-06 20:54 33.58810 -114.63568 25038 ft 415 kts 92°
2026-05-06 20:54 33.58558 -114.60118 25046 ft 415 kts 92°
2026-05-06 20:54 33.58310 -114.56664 25042 ft 415 kts 91°
2026-05-06 20:54 33.58069 -114.53213 25038 ft 415 kts 91°
2026-05-06 20:55 33.57833 -114.49764 25033 ft 415 kts 91°
2026-05-06 20:55 33.57601 -114.46309 25033 ft 415 kts 91°
2026-05-06 20:55 33.57367 -114.42860 25029 ft 415 kts 91°
2026-05-06 20:55 33.57131 -114.39414 25029 ft 415 kts 91°
2026-05-06 20:56 33.56895 -114.35957 25023 ft 415 kts 91°
2026-05-06 20:56 33.56662 -114.32508 25020 ft 415 kts 91°
2026-05-06 20:56 33.56427 -114.29053 25018 ft 415 kts 91°
2026-05-06 20:56 33.56192 -114.25646 25017 ft 415 kts 92°
2026-05-06 20:57 33.55947 -114.22151 25019 ft 415 kts 92°
2026-05-06 20:57 33.55703 -114.18700 25017 ft 415 kts 92°
2026-05-06 20:57 33.55462 -114.15293 25017 ft 416 kts 92°
2026-05-06 20:57 33.55216 -114.11837 25016 ft 416 kts 92°
2026-05-06 20:58 33.54967 -114.08383 25019 ft 416 kts 92°
2026-05-06 20:58 33.54719 -114.04929 25014 ft 416 kts 92°
2026-05-06 20:58 33.54471 -114.01468 25018 ft 416 kts 92°
2026-05-06 20:58 33.54225 -113.98012 25009 ft 416 kts 92°
2026-05-06 20:59 33.53979 -113.94554 25010 ft 416 kts 92°
2026-05-06 20:59 33.53731 -113.91098 24998 ft 416 kts 92°
2026-05-06 20:59 33.53478 -113.87641 24994 ft 417 kts 92°
2026-05-06 20:59 33.53225 -113.84187 24986 ft 416 kts 92°
2026-05-06 21:00 33.52969 -113.80728 24992 ft 417 kts 92°
2026-05-06 21:00 33.52687 -113.77272 24981 ft 417 kts 94°
2026-05-06 21:00 33.52310 -113.73814 24789 ft 419 kts 95°
2026-05-06 21:00 33.51863 -113.70395 24312 ft 410 kts 96°
2026-05-06 21:01 33.51386 -113.67082 23849 ft 398 kts 97°
2026-05-06 21:01 33.50915 -113.63858 23368 ft 388 kts 97°
2026-05-06 21:01 33.50472 -113.60709 22831 ft 380 kts 96°
2026-05-06 21:01 33.50057 -113.57612 22305 ft 373 kts 96°
2026-05-06 21:02 33.49663 -113.54567 21778 ft 367 kts 96°
2026-05-06 21:02 33.49279 -113.51569 21273 ft 362 kts 96°
2026-05-06 21:02 33.48898 -113.48598 20769 ft 358 kts 96°
2026-05-06 21:02 33.48520 -113.45655 20284 ft 356 kts 97°
2026-05-06 21:03 33.48139 -113.42730 19794 ft 355 kts 97°
2026-05-06 21:03 33.47757 -113.39816 19321 ft 353 kts 97°
2026-05-06 21:03 33.47376 -113.36916 18839 ft 352 kts 97°
2026-05-06 21:03 33.46994 -113.34032 18386 ft 350 kts 97°
2026-05-06 21:04 33.46611 -113.31162 17880 ft 349 kts 97°
2026-05-06 21:04 33.46231 -113.28305 17361 ft 346 kts 97°
2026-05-06 21:04 33.45852 -113.25461 16842 ft 344 kts 97°
2026-05-06 21:04 33.45478 -113.22642 16337 ft 342 kts 97°
2026-05-06 21:05 33.45106 -113.19836 15841 ft 340 kts 97°
2026-05-06 21:05 33.44736 -113.17058 15347 ft 338 kts 97°
2026-05-06 21:05 33.44369 -113.14325 14880 ft 335 kts 97°
2026-05-06 21:05 33.44003 -113.11603 14392 ft 324 kts 97°
2026-05-06 21:06 33.43652 -113.09009 13924 ft 308 kts 97°
2026-05-06 21:06 33.43318 -113.06538 13425 ft 295 kts 96°
2026-05-06 21:06 33.42996 -113.04133 12906 ft 293 kts 97°
2026-05-06 21:06 33.42673 -113.01709 12401 ft 296 kts 97°
2026-05-06 21:07 33.42349 -112.99269 11971 ft 296 kts 97°
2026-05-06 21:07 33.42024 -112.96836 11551 ft 296 kts 97°
2026-05-06 21:07 33.41697 -112.94403 11137 ft 296 kts 97°
2026-05-06 21:07 33.41369 -112.91974 10727 ft 295 kts 97°
2026-05-06 21:08 33.41041 -112.89552 10323 ft 294 kts 97°
2026-05-06 21:08 33.40715 -112.87142 9928 ft 293 kts 97°
2026-05-06 21:08 33.40390 -112.84739 9489 ft 292 kts 97°
2026-05-06 21:08 33.40063 -112.82342 9053 ft 291 kts 98°
2026-05-06 21:09 33.39732 -112.79949 8629 ft 291 kts 98°
2026-05-06 21:09 33.39403 -112.77569 8200 ft 289 kts 98°
2026-05-06 21:09 33.39076 -112.75195 7772 ft 289 kts 98°
2026-05-06 21:09 33.38751 -112.72825 7350 ft 288 kts 98°
2026-05-06 21:10 33.38428 -112.70464 6944 ft 288 kts 99°
2026-05-06 21:10 33.38104 -112.68102 6541 ft 288 kts 99°
2026-05-06 21:10 33.37781 -112.65734 6111 ft 289 kts 99°
2026-05-06 21:10 33.37456 -112.63363 5681 ft 289 kts 99°
2026-05-06 21:11 33.37240 -112.61789 5391 ft 289 kts 99°
2026-05-06 21:11 33.36928 -112.59507 4998 ft 290 kts 99°
2026-05-06 21:11 33.36599 -112.57123 4570 ft 291 kts 99°
2026-05-06 21:11 33.36269 -112.54739 4142 ft 292 kts 100°
2026-05-06 21:12 33.35931 -112.52342 3720 ft 292 kts 100°
2026-05-06 21:12 33.35593 -112.49943 3302 ft 293 kts 99°
2026-05-06 21:12 33.35259 -112.47561 3024 ft 286 kts 99°
2026-05-06 21:12 33.35090 -112.45289 2983 ft 261 kts 81°
2026-05-06 21:13 33.35780 -112.43455 2996 ft 229 kts 50°
2026-05-06 21:13 33.36843 -112.42235 2969 ft 194 kts 37°
2026-05-06 21:13 33.37939 -112.41354 2556 ft 186 kts 29°
2026-05-06 21:13 33.38997 -112.40641 2197 ft 163 kts 35°
2026-05-06 21:14 33.39920 -112.40008 1852 ft 143 kts 43°
2026-05-06 21:14 33.40644 -112.39198 1399 ft 142 kts 44°
2026-05-06 21:14 33.41379 -112.38431 1092 ft 137 kts 34°
2026-05-06 21:14 33.42066 -112.37771 967 ft 112 kts 28°
2026-05-06 21:15 33.42464 -112.37415 965 ft 30 kts 39°
2026-05-06 21:15 33.42636 -112.37247 968 ft 34 kts 38°
2026-05-06 21:15 33.42815 -112.37088 967 ft 19 kts 34°
2026-05-06 21:15 33.42871 -112.37123 978 ft 7 kts 315°
2026-05-06 21:16 33.42907 -112.37174 974 ft 11 kts 310°
2026-05-06 21:16 33.42957 -112.37248 974 ft 12 kts 308°
2026-05-06 21:16 33.42944 -112.37326 980 ft 11 kts 214°
2026-05-06 21:16 33.42880 -112.37360 976 ft 9 kts 163°
2026-05-06 21:17 33.42859 -112.37347 982 ft 0 kts 153°